Columbus, MS

8:26 AM CST on December 06, 2016 (GMT -0600)
Columbus Air Force Base

Weather History for KCBM - October, 2012

Change the Weather History Date:

Friday, October 26, 2012

  Actual Average Record
Temperature  
Mean Temperature 58 °F -  
Max Temperature 71 °F 72 °F 87 °F (2010)
Min Temperature 47 °F 50 °F 30 °F (2005)
Degree Days  
Heating Degree Days 6    
Growing Degree Days 8 (Base 50)    
Moisture  
Dew Point 54 °F    
Average Humidity 93    
Maximum Humidity 100    
Minimum Humidity 66    
Precipitation  
Precipitation 0.00 in - - ()
Sea Level Pressure  
Sea Level Pressure 30.01 in    
Wind  
Wind Speed 4 mph (NNW)    
Max Wind Speed 20 mph    
Max Gust Speed 21 mph    
Visibility 6 miles    
Events Rain    
Averages and records for this station are not official NWS values.
T = Trace of Precipitation, MM = Missing Value Source: NWS Daily Summary

Daily Weather History Graph

Daily Weather History Graph

Search for Another Location

Airport or City:

Trip Planner

Search our weather history database for the weather conditions in past years. The results will help you decide how hot, cold, wet, or windy it might be!

Date:

Astronomy

Oct. 26, 2012 Rise Set
Actual Time 7:07 AM CDT 6:06 PM CDT
Civil Twilight 6:42 AM CDT 6:32 PM CDT
Nautical Twilight 6:13 AM CDT 7:01 PM CDT
Astronomical Twilight 5:44 AM CDT 7:30 PM CDT
Moon 4:16 PM CDT (10/26) 4:11 AM CDT (10/26)
Length of Visible Light 11h 49m
Length of Day
10h 58m
Waxing Gibbous, 91% of the Moon is Illuminated
Oct 26
Waxing Gibbous
Oct 29
Full
Nov 6
Last Quarter
Nov 13
New
Nov 20
First Quarter

Hourly Weather History & Observations

Time (CDT) Temp. Dew Point Humidity Pressure Visibility Wind Dir Wind Speed Gust Speed Precip Events Conditions
12:00 AM 57.2 °F 57.2 °F 100% 29.99 in 1.0 mi Calm Calm - N/A   Clear
12:02 AM 57.2 °F 57.2 °F 100% 29.99 in 1.5 mi Calm Calm - N/A   Clear
12:03 AM 57.2 °F 57.2 °F 100% 29.99 in 1.8 mi Calm Calm - N/A   Clear
12:05 AM 57.2 °F 57.2 °F 100% 29.99 in 2.0 mi Calm Calm - N/A   Clear
12:08 AM 57.2 °F 57.2 °F 100% 29.99 in 3.0 mi Calm Calm - N/A   Clear
12:11 AM 57.2 °F 57.2 °F 100% 29.99 in 5.0 mi Calm Calm - N/A   Clear
12:55 AM 56.7 °F 56.7 °F 100% 29.99 in 9.0 mi Calm Calm - N/A   Clear
1:26 AM 55.4 °F 55.4 °F 100% 29.98 in 3.0 mi Calm Calm - N/A   Clear
1:27 AM 55.4 °F 55.4 °F 100% 29.98 in 2.0 mi Calm Calm - N/A   Clear
1:29 AM 55.4 °F 55.4 °F 100% 29.98 in 1.8 mi Calm Calm - N/A   Clear
1:31 AM 55.4 °F 55.4 °F 100% 29.98 in 2.0 mi Calm Calm - N/A   Clear
1:38 AM 55.4 °F 55.4 °F 100% 29.98 in 1.8 mi Calm Calm - N/A   Clear
1:39 AM 55.4 °F 55.4 °F 100% 29.98 in 1.2 mi Calm Calm - N/A   Clear
1:40 AM 55.4 °F 55.4 °F 100% 29.98 in 1.0 mi Calm Calm - N/A   Clear
1:47 AM 55.4 °F 55.4 °F 100% 29.98 in 1.2 mi Calm Calm - N/A   Clear
1:48 AM 55.4 °F 55.4 °F 100% 29.98 in 1.8 mi Calm Calm - N/A   Clear
1:49 AM 55.4 °F 55.4 °F 100% 29.98 in 2.5 mi Calm Calm - N/A   Clear
1:50 AM 55.4 °F 55.4 °F 100% 29.98 in 5.0 mi Calm Calm - N/A   Clear
1:55 AM 56.1 °F 56.1 °F 100% 29.97 in 10.0 mi Calm Calm - N/A   Clear
2:23 AM 55.4 °F 55.4 °F 100% 29.98 in 4.0 mi Calm Calm - N/A   Clear
2:24 AM 55.4 °F 55.4 °F 100% 29.99 in 2.5 mi Calm Calm - N/A   Clear
2:33 AM 55.4 °F 55.4 °F 100% 29.99 in 3.0 mi Calm Calm - N/A   Clear
2:34 AM 55.4 °F 55.4 °F 100% 29.99 in 6.0 mi Calm Calm - N/A   Clear
2:55 AM 55.8 °F 55.8 °F 100% 29.99 in 10.0 mi Calm Calm - N/A   Clear
3:55 AM 54.7 °F 54.7 °F 100% 29.99 in 7.0 mi Calm Calm - N/A   Clear
4:55 AM 53.6 °F 53.4 °F 99% 29.99 in 10.0 mi Calm Calm - N/A   Clear
5:25 AM 55.4 °F 55.4 °F 100% 29.99 in 4.0 mi Calm Calm - N/A   Clear
5:26 AM 55.4 °F 55.4 °F 100% 29.99 in 3.0 mi Calm Calm - N/A   Clear
5:31 AM 55.4 °F 55.4 °F 100% 29.99 in 4.0 mi Calm Calm - N/A   Clear
5:35 AM 55.4 °F 55.4 °F 100% 29.99 in 6.0 mi Calm Calm - N/A   Clear
5:55 AM 54.0 °F 54.0 °F 100% 29.98 in 10.0 mi SE 4.6 mph - N/A   Clear
6:45 AM 54.0 °F 54.0 °F 100% 29.98 in 3.0 mi Calm Calm - N/A   Clear
6:52 AM 53.6 °F 53.6 °F 100% 30.00 in 3.0 mi Calm Calm - N/A   Clear
6:53 AM 53.6 °F 53.6 °F 100% 30.00 in 2.0 mi Calm Calm - N/A   Clear
6:54 AM 53.6 °F 53.6 °F 100% 30.00 in 1.8 mi Calm Calm - N/A   Clear
6:55 AM 53.6 °F 53.6 °F 100% 30.00 in 1.5 mi Calm Calm - N/A   Clear
7:01 AM 53.6 °F 53.6 °F 100% 30.01 in 1.8 mi NW 3.5 mph - N/A   Clear
7:02 AM 53.6 °F 53.6 °F 100% 30.01 in 2.5 mi NW 4.6 mph - N/A   Clear
7:03 AM 53.6 °F 53.6 °F 100% 30.01 in 4.0 mi NW 4.6 mph - N/A   Clear
7:04 AM 53.6 °F 53.6 °F 100% 30.01 in 6.0 mi WNW 4.6 mph - N/A   Clear
7:55 AM 57.7 °F 57.7 °F 100% 30.04 in 10.0 mi NW 3.5 mph - N/A   Clear
8:55 AM 63.0 °F 60.1 °F 90% 30.06 in 10.0 mi NNE 4.6 mph - N/A   Clear
9:55 AM 65.8 °F 59.5 °F 80% 30.06 in 10.0 mi NNW 6.9 mph - N/A   Partly Cloudy
10:55 AM 68.0 °F 59.7 °F 75% 30.06 in 10.0 mi North 6.9 mph - N/A   Scattered Clouds
11:55 AM 67.6 °F 59.0 °F 74% 30.06 in 10.0 mi NW 11.5 mph - N/A   Partly Cloudy
12:55 PM 68.7 °F 59.0 °F 71% 30.03 in 10.0 mi NNW 6.9 mph - N/A   Mostly Cloudy
1:55 PM 68.9 °F 59.0 °F 71% 30.02 in 10.0 mi NW 9.2 mph - N/A   Mostly Cloudy
2:55 PM 70.3 °F 58.6 °F 66% 30.00 in 10.0 mi North 10.4 mph - N/A   Scattered Clouds
3:55 PM 65.8 °F 55.8 °F 70% 30.00 in 10.0 mi NNW 15.0 mph - N/A   Partly Cloudy
4:51 PM 60.8 °F 53.6 °F 77% 30.01 in 10.0 mi NNW 18.4 mph - N/A Rain Light Rain
4:54 PM 60.8 °F 53.6 °F 77% 30.02 in 10.0 mi NNW 16.1 mph - N/A Rain Light Rain
4:55 PM 60.3 °F 53.8 °F 79% 30.02 in 10.0 mi NW 17.3 mph - 0.00 in Rain Light Rain
5:08 PM 57.2 °F 53.6 °F 88% 30.01 in 10.0 mi NNW 15.0 mph - N/A Rain Light Rain
5:11 PM 57.2 °F 53.6 °F 88% 30.01 in 10.0 mi NNW 17.3 mph - N/A   Overcast
5:25 PM 57.2 °F 51.8 °F 82% 30.02 in 10.0 mi NNW 15.0 mph - N/A   Light Drizzle
5:39 PM 55.4 °F 51.8 °F 88% 30.02 in 10.0 mi NNW 19.6 mph - N/A   Overcast
5:40 PM 55.4 °F 51.8 °F 88% 30.02 in 10.0 mi NNW 18.4 mph - N/A   Overcast
5:55 PM 55.0 °F 51.3 °F 87% 30.03 in 10.0 mi NNW 18.4 mph - 0.00 in   Overcast
5:57 PM 55.4 °F 51.8 °F 88% 30.03 in 10.0 mi NNW 19.6 mph - N/A   Overcast
6:55 PM 52.9 °F 49.5 °F 88% 30.07 in 10.0 mi North 13.8 mph - N/A   Overcast
7:20 PM 51.8 °F 48.2 °F 88% 30.08 in 10.0 mi NNW 17.3 mph - N/A Rain Light Rain
7:43 PM 51.8 °F 48.2 °F 88% 30.08 in 10.0 mi North 15.0 mph - N/A   Overcast
7:55 PM 51.1 °F 47.7 °F 88% 30.08 in 10.0 mi NNW 15.0 mph - 0.00 in   Overcast
8:15 PM 50.0 °F 46.4 °F 87% 30.08 in 10.0 mi NNW 16.1 mph 20.7 mph N/A   Overcast
8:55 PM 49.3 °F 45.7 °F 87% 30.09 in 10.0 mi North 15.0 mph - N/A   Overcast
9:28 PM 48.2 °F 44.6 °F 87% 30.10 in 10.0 mi NNW 13.8 mph - N/A   Overcast
9:55 PM 48.7 °F 44.4 °F 85% 30.09 in 10.0 mi NNW 15.0 mph - N/A   Overcast
10:39 PM 48.2 °F 44.6 °F 87% 30.09 in 10.0 mi NNW 13.8 mph - N/A   Overcast
10:55 PM 47.7 °F 43.5 °F 86% 30.10 in 10.0 mi NNW 11.5 mph - N/A   Overcast
11:55 PM 47.5 °F 42.6 °F 83% 30.09 in 10.0 mi NNW 12.7 mph - N/A   Overcast